STARLINK-33751, 63512

Orbit data source: Space-Track

STARLINK-33751, 63512 is a payload satellite owned by SpaceX/Seattle (US) in LEO that was launched on Mon, 07 Apr 2025 UTC via an FALCON 9 launch vehicle from the Air Force Western Test Range (AFWTR). Payload-class satellites include a variety of spacecraft equipped with specific instruments for various scientific and technological missions. These include communications satellites like Starlink; space stations such as the ISS; scientific satellites like the Hubble; Earth observation satellites from companies like Planet Labs, Umbra, and HawkEye 360; GPS; miniature CubeSats for education and research; and military/defense satellites.

Loading next visibility...
Identifier
63512, 2025-071V
Orbit
LEO
Last TLE update
13 hours ago
Origin
Manufacturer
SpaceX/Seattle
Mission
Operational Commercial Communications
Bus & Motor
STARLINK V2MO, Unknown motor
Mass
575 kg wet, ~530 kg dry
Launch date (UTC)
2025-04-07 (3 months ago)
Launch vehicle
FALCON 9
Launch site
Air Force Western Test Range (AFWTR)
Object type
Payload
Rocket body
Debris
Shape & HBR
Box + 1 Pan, 29 m
Radar Cross Section
41.120 m², Large (>1 m²)

Expand to show TLE details & history

TLE from 13 hours ago
0 STARLINK-33751
1 63512U 25071V   25186.38232336  .00017878  00000-0  61427-3 0  9998
2 63512  53.1591 208.7759 0001283  76.4083 283.7061 15.30200915 14887
Epoch: 2025-07-05T09:10Z
TLE epoch observation values (Epoch: 2025-07-05T09:10:32.738Z)
Latitude
0.00002°
Longitude
147.51834°
Altitude
475.904 km
Speed
7.629 km/s
True Right ascension
13h 55m 06s
True Declination
0° 00' 00"
Sunlit
Object was in daylight at epoch
Visualization orbit readout
Latitude
-23.03282°
Longitude
-16.61805°
Altitude
482.303 km
Speed
7.624 km/s
Apparent Right ascension
01h 05m 00s
Apparent Declination
-35° 33' 43"
Sunlit
Object is in daylight
Visualization observer readout
Local Sidereal Time
10:33:45
Azimuth
266.137° W
Elevation
-60.009°
Doppler factor
1
Orbital elements
Apogee altitude
476.348 km
Perigee altitude
474.59 km
Semi-major axis
6,853.606 km
Eccentricity
0.00013
Inclination
53.1591°
RAAN
208.7759°
Arg. of periapsis
76.4083°
True anomaly
Unknown
Mean anomaly
283.7061°
Eccentric anomaly
Unknown
Mean motion
3.82529 °/min
Orbital period
94.11 mins
BSTAR
0.00061427
Loading maneuver chart data...
Loading SW <> Apogee altitude chart data...
Loading historical data...
Loading historical data...
Loading historical data...
Loading historical data...
Loading historical data...
Loading historical data...
Loading historical data...

STARLINK-33751 Visibility forecast

Observer location: undefined°, undefined°

Span
Click to sort rows by Start time (UTC) header in descending order
Start Az.
Max El. time (UTC)
Max El. Az.
Max El.
End time (UTC)
End Az.
6 mins2025-07-06 04:09:32.131Z225.209° WSW2025-07-06 04:12:32.131Z200.184° SSW43.484°2025-07-06 04:15:32.131Z52.654° ENE
4 mins2025-07-06 05:49:32.131Z303.887° NW2025-07-06 05:51:32.131Z345.896° N18.069°2025-07-06 05:53:32.131Z21.135° NNE
4 mins2025-07-06 09:07:32.131Z345.427° N2025-07-06 09:09:32.131Z21.516° NNE15.401°2025-07-06 09:11:32.131Z56.201° ENE
5 mins2025-07-06 10:45:32.131Z318.522° NNW2025-07-06 10:47:32.131Z359.469° N41.276°2025-07-06 10:50:32.131Z118.832° SE
|